Weather Roundup
Issued by NWS

Home | Current Version | Previous Version | Text Only | Print | Product List | Glossary On
Versions: 1 2 3 4 5 6 7 8 9 10 11 12 13 14 15 16 17 18 19 20 21 22 23 24 25 26 27 28 29 30 31 32 33 34 35 36 37 38 39 40 41 42 43 44 45 46 47 48 49 50
158
NZUS93 KARX 162059
HRRWXR

CURRENT HOURLY OBSERVATIONS ACROSS
MUCH OF THE UPPER MISSISSIPPI VALLEY
NATIONAL WEATHER SERVICE LA CROSSE WI
400 PM CDT MON OCT 16 2017


...SOUTHEAST MINNESOTA...


CITY           SKY/WX    TMP DP  RH WIND       PRES   REMARKS
ROCHESTER      SUNNY     64  38  38 SW15      30.13F
ROCHESTER/MAYO FAIR      64  33  31 SW13G23   30.12F
WINONA         SUNNY     64  32  29 W6        30.13F
AUSTIN         SUNNY     64  34  32 SW16      30.12F
ALBERT LEA     SUNNY     70  36  28 S10       30.11F
DODGE CENTER   SUNNY     64  30  27 SW16G23   30.11F
PRESTON        SUNNY     63  32  31 SW9       30.14F
OWATONNA       SUNNY     66  37  34 S17       30.09F
FARIBAULT      SUNNY     66  36  32 S13G18    30.08F
$$

...ELSEWHERE IN MINNESOTA...


CITY           SKY/WX    TMP DP  RH WIND       PRES   REMARKS
MINNEAPOLIS    MOSUNNY   66  36  32 SW12      30.06F
INTNL FALLS    SUNNY     62  34  35 S12G24    29.81F
DULUTH         MOSUNNY   58  35  42 SW20G28   29.98F
RED WING       SUNNY     66  28  24 W9        30.08F
REDWOOD FALLS  SUNNY     70  33  25 S16G24    30.00F
MANKATO        SUNNY     68  34  28 SW15      30.06F
WORTHINGTON    SUNNY     69  36  29 SW16G23   30.05F
FAIRMONT       NOT AVBL
$$

...SOUTHWEST WISCONSIN...


CITY           SKY/WX    TMP DP  RH WIND       PRES   REMARKS
LA CROSSE      SUNNY     66  33  29 SW12      30.14F
PRAIRIE DU CHI SUNNY     65  28  25 W9        30.18F
BOSCOBEL       SUNNY     65  33  30 W9        30.18F
LONE ROCK      NOT AVBL
PLATTEVILLE    SUNNY     63  36  36 SW9       30.21F
FORT MC COY    SUNNY     61  37  41 SW7       30.17F
MAUSTON-NEW LI CLEAR     61  38  42 W14       30.17S
VIROQUA        FAIR      62  35  36 SW12G18   30.18F
WIS DELLS      SUNNY     59  34  38 W13       30.18F
$$

...ELSEWHERE IN WISCONSIN...


CITY           SKY/WX    TMP DP  RH WIND       PRES   REMARKS
MILWAUKEE      MOSUNNY   62  32  32 SW14      30.20F
MADISON        MOSUNNY   60  35  39 SW9       30.19F
GREEN BAY      MOSUNNY   58  39  49 SW10      30.16F
EAU CLAIRE     SUNNY     61  33  35 SW13      30.10F
BLACK RVR FLS  FAIR      63  32  30 SW9       30.15F
MEDFORD        SUNNY     56  33  40 SW13G20   30.12F
WAUSAU         SUNNY     57  36  45 SW13G22   30.11F
WIS RAPIDS     SUNNY     60  35  39 W12       30.16S
MARSHFIELD     SUNNY     58  34  40 SW16      30.13F
RICE LAKE      SUNNY     61  32  33 SW9G18    30.10F
$$

...NORTHEAST IOWA...


CITY           SKY/WX    TMP DP  RH WIND       PRES   REMARKS
WATERLOO       SUNNY     66  33  29 SW12G22   30.17F
DUBUQUE        SUNNY     62  35  36 SW15      30.21F
DECORAH        SUNNY     64  34  32 SW8G16    30.16F
MASON CITY     SUNNY     66  35  31 SW16      30.14F
CHARLES CITY   SUNNY     66  32  28 S12G20    30.15F
OELWEIN        SUNNY     64  34  32 SW12G21   30.18F
$$

...ELSEWHERE IN IOWA...


CITY           SKY/WX    TMP DP  RH WIND       PRES   REMARKS
DES MOINES     MOSUNNY   69  35  28 S17       30.19F
IOWA CITY      SUNNY     67  34  29 W9        30.23F
FORT DODGE     SUNNY     69  37  30 S17       30.13F
MARSHALLTOWN   SUNNY     66  38  35 SW13      30.18F
CEDAR RAPIDS   SUNNY     66  33  29 SW9       30.21F
$$

...NORTHERN ILLINOIS...


CITY           SKY/WX    TMP DP  RH WIND       PRES   REMARKS
CHICAGO-OHARE  MOSUNNY   62  34  35 W13       30.22F
CHICAGO-MIDWAY MOSUNNY   63  38  39 W15       30.24F
MOLINE         SUNNY     65  38  36 W9        30.24F
ROCKFORD       SUNNY     62  33  33 SW10      30.24F
PEORIA         SUNNY     65  34  31 W5        30.26F
$$

NOTE: "FAIR" INDICATES FEW OR NO CLOUDS BELOW 12,000 FEET WITH NO
SIGNIFICANT WEATHER AND/OR OBSTRUCTIONS TO VISIBILITY. WIND
SPEEDS ARE IN MILES-PER-HOUR.




USA.gov is the U.S. government's official web portal to all federal, state and local government web resources and services.